weather.gov     
National Weather Service

Terminal Aerodrome Forecast
NWS Homepage
This page is being discontinued on March 12, 2014.
The same data is available at this site. Please update your bookmarks.
Thank you, and we apologize for the inconvenience.
Please send an email to SR-SRH.Webmaster@noaa.gov with any concerns.


Current Version
Previous Version:    01  02  03  04  05  06  07  08  09  10  11  12  13  14  15  16  17  18  19  20  21  22  23  24  25  26  27  28  29  30  
   31  
[Printable]
511
FTUS43 KMPX 211500 AAA
TAFEAU
TAF AMD
KEAU 211545Z 2116/2212 15009KT 2SM BR OVC005
      TEMPO 2116/2119 1SM -RASN BR OVC003
     FM211900 15011KT 1 1/2SM -RA BR OVC003
     FM212200 15012KT 2SM BR OVC005
     FM220200 14013KT 3SM BR OVC008=


U.S. Dept. of Commerce
NOAA National Weather Service
1325 East West Highway
Silver Spring, MD 20910
E-mail: w-nws.webmaster@noaa.gov
Page last modified: May 16, 2007
NATIONAL WEATHER SERVICE: for Safety, for Work, for Fun - FOR LIFE